QPF
0.05 0.04 0.04 0.05 0.05 0.06 0.08 0.06 0.03 0.01 0.00 0.00 0.00 0.00 0.00 0.00 0.00 0.00 0.00 0.00 0.00 0.00 0.00 0.00 0.00 0.00 0.00 0.00 0.00 0.00 0.00 0.00 0.00 0.00 0.00 0.00 0.00 0.00 0.00 0.00 0.00 0.00 0.00 0.00
0.03 0.02 0.02 0.03 0.03 0.03 0.03 0.02 0.01 0.00 0.00 0.00 0.00 0.00 0.00 0.00 0.00 0.00 0.00 0.00 0.00 0.00 0.00 0.00 0.00 0.00 0.00 0.00 0.00 0.00 0.00 0.00 0.00 0.00 0.00 0.00 0.00 0.00 0.00 0.00 0.00 0.00 0.00 0.00
0.05 0.02 0.04 0.04 0.02 0.02 0.02 0.01 0.00 0.00 0.00 0.00 0.00 0.00 0.00 0.00 0.00 0.00 0.00 0.00 0.00 0.00 0.00 0.00 0.00 0.00 0.00 0.00 0.00 0.00 0.00 0.00 0.00 0.00 0.00 0.00 0.00 0.00 0.00 0.00 0.00 0.00 0.00 0.00
0.07 0.06 0.08 0.03 0.01 0.01 0.01 0.01 0.01 0.01 0.01 0.00 0.00 0.00 0.00 0.00 0.00 0.00 0.00 0.00 0.00 0.00 0.00 0.00 0.00 0.00 0.00 0.00 0.00 0.00 0.00 0.00 0.00 0.00 0.00 0.00 0.00 0.00 0.00 0.00 0.00 0.00 0.00 0.00
0.11 0.08 0.04 0.01 0.01 0.01 0.01 0.02 0.02 0.01 0.01 0.01 0.00 0.00 0.00 0.00 0.00 0.00 0.00 0.00 0.00 0.00 0.00 0.00 0.00 0.00 0.00 0.00 0.00 0.00 0.00 0.00 0.00 0.00 0.00 0.00 0.00 0.00 0.00 0.00 0.00 0.00 0.00 0.00
0.11 0.08 0.03 0.01 0.01 0.01 0.01 0.03 0.02 0.01 0.01 0.01 0.01 0.00 0.00 0.00 0.00 0.00 0.00 0.00 0.00 0.00 0.00 0.00 0.00 0.00 0.00 0.00 0.00 0.00 0.00 0.00 0.00 0.00 0.00 0.00 0.00 0.00 0.00 0.00 0.00 0.00 0.00 0.00
0.09 0.06 0.02 0.01 0.01 0.02 0.04 0.05 0.03 0.01 0.01 0.01 0.01 0.00 0.00 0.00 0.00 0.00 0.00 0.00 0.00 0.00 0.00 0.00 0.00 0.00 0.00 0.00 0.00 0.00 0.00 0.00 0.00 0.00 0.00 0.00 0.00 0.00 0.00 0.00 0.00 0.00 0.00 0.00
0.06 0.05 0.02 0.01 0.03 0.05 0.05 0.03 0.02 0.01 0.01 0.01 0.01 0.00 0.00 0.00 0.00 0.00 0.00 0.00 0.00 0.00 0.00 0.00 0.00 0.00 0.00 0.00 0.00 0.00 0.00 0.00 0.00 0.00 0.00 0.00 0.00 0.00 0.00 0.00 0.00 0.00 0.00 0.00
0.05 0.03 0.01 0.01 0.02 0.03 0.02 0.01 0.01 0.01 0.00 0.00 0.00 0.00 0.00 0.00 0.00 0.00 0.00 0.00 0.00 0.00 0.00 0.00 0.00 0.00 0.00 0.00 0.00 0.00 0.00 0.00 0.00 0.00 0.00 0.00 0.00 0.00 0.00 0.00 0.00 0.00 0.00 0.00
0.04 0.01 0.01 0.01 0.01 0.01 0.01 0.01 0.01 0.01 0.00 0.00 0.00 0.00 0.00 0.00 0.00 0.00 0.00 0.00 0.00 0.00 0.00 0.00 0.00 0.00 0.00 0.00 0.00 0.00 0.00 0.00 0.00 0.00 0.00 0.00 0.00 0.00 0.00 0.00 0.00 0.00 0.00 0.00
0.03 0.02 0.01 0.01 0.01 0.01 0.01 0.01 0.01 0.01 0.00 0.00 0.00 0.00 0.00 0.00 0.00 0.00 0.00 0.00 0.00 0.00 0.00 0.00 0.00 0.00 0.00 0.00 0.00 0.00 0.00 0.00 0.00 0.00 0.00 0.00 0.00 0.00 0.00 0.00 0.00 0.00 0.00 0.00
0.03 0.03 0.02 0.01 0.01 0.01 0.01 0.01 0.01 0.01 0.01 0.00 0.00 0.00 0.00 0.00 0.00 0.00 0.00 0.00 0.00 0.00 0.00 0.00 0.00 0.00 0.00 0.00 0.00 0.00 0.00 0.00 0.00 0.00 0.00 0.00 0.00 0.00 0.00 0.00 0.00 0.00 0.00 0.00
0.01 0.02 0.02 0.02 0.01 0.01 0.01 0.01 0.01 0.01 0.01 0.01 0.00 0.00 0.00 0.00 0.00 0.00 0.00 0.00 0.00 0.00 0.00 0.00 0.00 0.00 0.00 0.00 0.00 0.00 0.00 0.00 0.00 0.00 0.00 0.00 0.00 0.00 0.00 0.00 0.00 0.00 0.00 0.00
0.01 0.02 0.02 0.01 0.01 0.01 0.01 0.01 0.01 0.01 0.01 0.01 0.01 0.00 0.00 0.00 0.00 0.00 0.00 0.00 0.00 0.00 0.00 0.00 0.00 0.00 0.00 0.00 0.00 0.00 0.00 0.00 0.00 0.00 0.00 0.00 0.00 0.00 0.00 0.00 0.00 0.00 0.00 0.00
0.01 0.02 0.03 0.02 0.01 0.00 0.01 0.01 0.01 0.01 0.01 0.01 0.01 0.01 0.00 0.00 0.00 0.00 0.00 0.00 0.00 0.00 0.00 0.00 0.00 0.00 0.00 0.00 0.00 0.00 0.00 0.00 0.00 0.00 0.00 0.00 0.00 0.00 0.00 0.00 0.00 0.00 0.00 0.00
0.02 0.03 0.04 0.02 0.01 0.01 0.01 0.01 0.01 0.01 0.01 0.01 0.01 0.01 0.01 0.00 0.00 0.00 0.00 0.00 0.00 0.00 0.00 0.00 0.00 0.00 0.00 0.00 0.00 0.00 0.00 0.00 0.00 0.00 0.00 0.00 0.00 0.00 0.00 0.00 0.00 0.00 0.00 0.00
0.01 0.03 0.04 0.03 0.01 0.01 0.01 0.01 0.01 0.01 0.01 0.01 0.01 0.01 0.01 0.00 0.00 0.00 0.00 0.00 0.00 0.00 0.00 0.00 0.00 0.00 0.00 0.00 0.00 0.00 0.00 0.00 0.00 0.00 0.00 0.00 0.00 0.00 0.00 0.00 0.00 0.00 0.00 0.00
0.01 0.02 0.02 0.02 0.02 0.02 0.01 0.00 0.00 0.01 0.01 0.01 0.01 0.01 0.01 0.01 0.00 0.00 0.00 0.00 0.00 0.00 0.00 0.00 0.00 0.00 0.00 0.00 0.00 0.00 0.00 0.00 0.00 0.00 0.00 0.00 0.00 0.00 0.00 0.00 0.00 0.00 0.00 0.00
0.01 0.01 0.01 0.01 0.01 0.01 0.01 0.01 0.00 0.01 0.01 0.01 0.01 0.01 0.01 0.01 0.01 0.00 0.00 0.00 0.00 0.00 0.00 0.00 0.00 0.00 0.00 0.00 0.00 0.00 0.00 0.00 0.00 0.00 0.00 0.00 0.00 0.00 0.00 0.00 0.00 0.00 0.00 0.00
0.01 0.01 0.01 0.01 0.01 0.01 0.01 0.01 0.01 0.01 0.01 0.01 0.01 0.01 0.01 0.01 0.01 0.01 0.00 0.00 0.00 0.00 0.00 0.00 0.00 0.00 0.00 0.00 0.00 0.00 0.00 0.00 0.00 0.00 0.00 0.00 0.00 0.00 0.00 0.00 0.00 0.00 0.00 0.00
0.01 0.01 0.02 0.01 0.01 0.01 0.01 0.01 0.01 0.01 0.01 0.01 0.01 0.01 0.01 0.01 0.01 0.00 0.00 0.00 0.00 0.00 0.00 0.00 0.00 0.00 0.00 0.00 0.00 0.00 0.00 0.00 0.00 0.00 0.00 0.00 0.00 0.00 0.00 0.00 0.00 0.00 0.00 0.00
0.02 0.03 0.03 0.02 0.01 0.01 0.01 0.01 0.01 0.01 0.01 0.02 0.02 0.02 0.01 0.01 0.01 0.00 0.00 0.00 0.00 0.00 0.00 0.00 0.00 0.00 0.00 0.00 0.00 0.00 0.00 0.00 0.00 0.00 0.00 0.00 0.00 0.00 0.00 0.00 0.00 0.00 0.00 0.00
0.03 0.03 0.03 0.03 0.02 0.01 0.01 0.01 0.02 0.02 0.02 0.02 0.02 0.02 0.02 0.01 0.01 0.00 0.00 0.00 0.00 0.00 0.00 0.00 0.00 0.00 0.00 0.00 0.00 0.00 0.00 0.00 0.00 0.00 0.00 0.00 0.00 0.00 0.00 0.00 0.00 0.00 0.00 0.00
0.03 0.03 0.03 0.03 0.03 0.03 0.02 0.02 0.02 0.02 0.02 0.02 0.02 0.02 0.02 0.01 0.01 0.01 0.00 0.00 0.00 0.00 0.00 0.00 0.00 0.00 0.00 0.00 0.00 0.00 0.00 0.00 0.00 0.01 0.01 0.00 0.00 0.00 0.00 0.00 0.00 0.00 0.00 0.00
0.03 0.03 0.02 0.03 0.03 0.03 0.04 0.03 0.02 0.02 0.02 0.02 0.02 0.02 0.02 0.01 0.01 0.01 0.01 0.01 0.00 0.01 0.01 0.01 0.01 0.00 0.00 0.00 0.00 0.00 0.01 0.01 0.01 0.01 0.00 0.00 0.00 0.00 0.00 0.00 0.00 0.00 0.00 0.00
0.05 0.04 0.03 0.02 0.03 0.03 0.03 0.03 0.02 0.01 0.01 0.02 0.02 0.02 0.02 0.02 0.01 0.01 0.01 0.01 0.01 0.01 0.01 0.01 0.01 0.01 0.00 0.00 0.01 0.01 0.01 0.01 0.01 0.01 0.00 0.00 0.00 0.00 0.00 0.00 0.00 0.00 0.00 0.00
0.06 0.04 0.03 0.03 0.03 0.03 0.02 0.02 0.02 0.02 0.02 0.02 0.02 0.02 0.02 0.02 0.02 0.02 0.02 0.02 0.02 0.02 0.01 0.01 0.01 0.01 0.01 0.01 0.01 0.01 0.01 0.01 0.01 0.01 0.00 0.00 0.00 0.00 0.00 0.00 0.00 0.00 0.00 0.00
MSLP
1008.77 1007.81 1006.71 1005.46 1004.07 1002.58 1001.02 999.45 997.96 996.59 995.42 994.51 993.88 993.56 993.52 993.74 994.17 994.76 995.46 996.20 996.95 997.67 998.35 998.97 999.55 1000.09 1000.61 1001.12 1001.65 1002.21 1002.80 1003.43 1004.11 1004.83 1005.59 1006.38 1007.19 1008.01 1008.82 1009.60 1010.35 1011.07 1011.73 1012.34
1008.73 1007.77 1006.65 1005.37 1003.95 1002.43 1000.86 999.31 997.85 996.53 995.40 994.52 993.91 993.57 993.48 993.61 993.94 994.42 995.01 995.68 996.39 997.12 997.85 998.57 999.27 999.94 1000.59 1001.22 1001.83 1002.43 1003.02 1003.62 1004.24 1004.89 1005.57 1006.28 1007.03 1007.81 1008.59 1009.38 1010.14 1010.86 1011.54 1012.17
1008.25 1007.29 1006.17 1004.91 1003.53 1002.09 1000.63 999.21 997.89 996.72 995.72 994.93 994.36 994.00 993.84 993.85 994.01 994.30 994.71 995.22 995.82 996.50 997.23 998.01 998.82 999.63 1000.44 1001.20 1001.93 1002.61 1003.24 1003.84 1004.43 1005.01 1005.63 1006.27 1006.95 1007.68 1008.43 1009.19 1009.94 1010.67 1011.36 1012.00
1007.43 1006.47 1005.38 1004.20 1002.95 1001.67 1000.42 999.24 998.17 997.22 996.42 995.77 995.27 994.90 994.63 994.48 994.42 994.47 994.63 994.91 995.33 995.89 996.57 997.37 998.25 999.19 1000.13 1001.05 1001.91 1002.69 1003.39 1004.03 1004.61 1005.17 1005.73 1006.32 1006.95 1007.62 1008.33 1009.07 1009.81 1010.54 1011.23 1011.87
1006.42 1005.48 1004.47 1003.41 1002.35 1001.32 1000.35 999.47 998.71 998.04 997.48 997.00 996.57 996.18 995.81 995.47 995.16 994.92 994.79 994.79 994.98 995.36 995.95 996.72 997.63 998.65 999.72 1000.77 1001.76 1002.66 1003.45 1004.14 1004.75 1005.31 1005.86 1006.41 1007.00 1007.64 1008.33 1009.04 1009.77 1010.49 1011.18 1011.81
1005.37 1004.48 1003.58 1002.70 1001.86 1001.11 1000.46 999.92 999.48 999.11 998.79 998.48 998.12 997.71 997.23 996.68 996.12 995.58 995.14 994.85 994.79 994.97 995.42 996.12 997.03 998.10 999.25 1000.41 1001.51 1002.52 1003.41 1004.17 1004.83 1005.42 1005.97 1006.53 1007.11 1007.74 1008.41 1009.12 1009.84 1010.56 1011.23 1011.85
1004.39 1003.59 1002.83 1002.14 1001.55 1001.08 1000.74 1000.52 1000.38 1000.28 1000.17 999.99 999.69 999.25 998.65 997.93 997.12 996.32 995.59 995.03 994.72 994.71 995.01 995.63 996.50 997.58 998.78 1000.01 1001.21 1002.31 1003.28 1004.12 1004.85 1005.49 1006.08 1006.66 1007.26 1007.91 1008.59 1009.31 1010.04 1010.75 1011.41 1012.02
1003.53 1002.84 1002.24 1001.75 1001.39 1001.18 1001.10 1001.14 1001.24 1001.34 1001.39 1001.30 1001.03 1000.54 999.85 998.97 997.98 996.95 996.00 995.23 994.72 994.55 994.72 995.25 996.07 997.14 998.35 999.63 1000.88 1002.05 1003.10 1004.02 1004.81 1005.52 1006.17 1006.80 1007.46 1008.14 1008.86 1009.61 1010.35 1011.07 1011.74 1012.32
1002.77 1002.21 1001.76 1001.45 1001.28 1001.27 1001.38 1001.60 1001.85 1002.08 1002.21 1002.17 1001.89 1001.37 1000.60 999.61 998.50 997.34 996.25 995.34 994.71 994.43 994.51 994.97 995.75 996.80 998.01 999.30 1000.59 1001.80 1002.91 1003.89 1004.75 1005.53 1006.26 1006.97 1007.69 1008.44 1009.22 1010.01 1010.79 1011.52 1012.19 1012.77
1002.04 1001.61 1001.30 1001.13 1001.10 1001.21 1001.44 1001.74 1002.06 1002.33 1002.48 1002.43 1002.14 1001.58 1000.76 999.74 998.57 997.37 996.24 995.29 994.62 994.30 994.35 994.78 995.53 996.55 997.75 999.04 1000.34 1001.58 1002.73 1003.77 1004.71 1005.56 1006.38 1007.17 1007.98 1008.80 1009.65 1010.50 1011.32 1012.09 1012.77 1013.35
1001.27 1000.96 1000.76 1000.68 1000.73 1000.90 1001.16 1001.47 1001.77 1002.01 1002.12 1002.04 1001.72 1001.15 1000.33 999.33 998.19 997.04 995.95 995.05 994.43 994.14 994.21 994.63 995.38 996.39 997.57 998.86 1000.16 1001.42 1002.60 1003.69 1004.70 1005.63 1006.53 1007.42 1008.32 1009.23 1010.15 1011.05 1011.92 1012.73 1013.43 1014.03
1000.41 1000.18 1000.06 1000.03 1000.11 1000.27 1000.50 1000.76 1001.00 1001.17 1001.22 1001.09 1000.75 1000.19 999.42 998.48 997.45 996.41 995.45 994.67 994.15 993.94 994.07 994.53 995.29 996.29 997.47 998.75 1000.05 1001.32 1002.54 1003.68 1004.75 1005.77 1006.75 1007.73 1008.71 1009.70 1010.69 1011.66 1012.57 1013.41 1014.15 1014.76
999.42 999.26 999.18 999.17 999.24 999.37 999.53 999.71 999.87 999.96 999.95 999.78 999.44 998.92 998.23 997.42 996.53 995.65 994.85 994.23 993.84 993.74 993.95 994.46 995.24 996.25 997.43 998.69 1000.00 1001.29 1002.54 1003.73 1004.87 1005.97 1007.03 1008.10 1009.15 1010.21 1011.26 1012.27 1013.23 1014.10 1014.86 1015.49
998.32 998.21 998.15 998.15 998.20 998.28 998.38 998.49 998.57 998.59 998.54 998.36 998.05 997.59 997.02 996.34 995.62 994.92 994.30 993.84 993.59 993.60 993.89 994.45 995.25 996.27 997.43 998.70 1000.01 1001.33 1002.62 1003.86 1005.07 1006.23 1007.38 1008.51 1009.63 1010.75 1011.83 1012.88 1013.86 1014.75 1015.52 1016.17
997.17 997.09 997.06 997.05 997.08 997.12 997.18 997.23 997.26 997.26 997.19 997.04 996.78 996.42 995.97 995.45 994.89 994.36 993.91 993.60 993.47 993.57 993.92 994.51 995.33 996.34 997.50 998.77 1000.09 1001.43 1002.76 1004.06 1005.33 1006.57 1007.78 1008.96 1010.13 1011.28 1012.39 1013.45 1014.44 1015.33 1016.11 1016.77
996.01 995.97 995.95 995.95 995.96 995.99 996.03 996.06 996.09 996.09 996.05 995.95 995.77 995.52 995.20 994.83 994.43 994.05 993.74 993.55 993.52 993.68 994.07 994.68 995.50 996.50 997.66 998.92 1000.26 1001.62 1002.99 1004.34 1005.66 1006.95 1008.21 1009.44 1010.63 1011.79 1012.91 1013.96 1014.94 1015.82 1016.60 1017.26
994.88 994.86 994.86 994.88 994.90 994.93 994.98 995.03 995.08 995.12 995.14 995.12 995.05 994.92 994.73 994.49 994.23 993.98 993.79 993.69 993.73 993.94 994.35 994.96 995.77 996.77 997.91 999.18 1000.53 1001.91 1003.31 1004.70 1006.06 1007.39 1008.68 1009.93 1011.13 1012.28 1013.38 1014.41 1015.36 1016.23 1016.99 1017.65
993.77 993.78 993.80 993.83 993.87 993.93 994.00 994.09 994.20 994.31 994.41 994.49 994.53 994.52 994.46 994.36 994.22 994.09 993.99 993.97 994.07 994.32 994.75 995.37 996.18 997.16 998.30 999.57 1000.92 1002.32 1003.74 1005.15 1006.53 1007.88 1009.17 1010.41 1011.60 1012.73 1013.79 1014.79 1015.71 1016.55 1017.29 1017.94
992.67 992.69 992.73 992.77 992.84 992.92 993.03 993.18 993.35 993.54 993.74 993.93 994.09 994.21 994.28 994.30 994.29 994.27 994.27 994.33 994.50 994.80 995.26 995.90 996.71 997.70 998.84 1000.11 1001.46 1002.86 1004.28 1005.69 1007.07 1008.40 1009.68 1010.90 1012.05 1013.14 1014.16 1015.12 1016.01 1016.81 1017.54 1018.17
991.54 991.55 991.59 991.64 991.72 991.83 991.99 992.19 992.43 992.71 993.01 993.31 993.59 993.84 994.04 994.19 994.31 994.42 994.54 994.71 994.96 995.33 995.85 996.53 997.38 998.39 999.54 1000.80 1002.14 1003.53 1004.93 1006.32 1007.67 1008.97 1010.20 1011.37 1012.48 1013.52 1014.50 1015.41 1016.26 1017.04 1017.75 1018.37
990.33 990.32 990.34 990.39 990.48 990.62 990.81 991.07 991.39 991.76 992.16 992.57 992.97 993.35 993.69 993.99 994.25 994.50 994.76 995.06 995.43 995.91 996.52 997.27 998.17 999.21 1000.37 1001.63 1002.96 1004.32 1005.68 1007.02 1008.32 1009.56 1010.73 1011.84 1012.89 1013.88 1014.81 1015.69 1016.51 1017.26 1017.95 1018.56
989.05 989.00 988.99 989.03 989.13 989.29 989.54 989.86 990.25 990.71 991.21 991.73 992.26 992.77 993.25 993.71 994.13 994.54 994.95 995.40 995.92 996.53 997.25 998.09 999.05 1000.14 1001.31 1002.57 1003.87 1005.19 1006.50 1007.77 1009.00 1010.16 1011.27 1012.31 1013.30 1014.23 1015.12 1015.96 1016.75 1017.49 1018.16 1018.76
987.71 987.62 987.59 987.63 987.74 987.94 988.24 988.63 989.11 989.66 990.27 990.91 991.56 992.20 992.83 993.43 994.02 994.59 995.18 995.79 996.46 997.21 998.05 998.99 1000.02 1001.15 1002.34 1003.59 1004.86 1006.12 1007.36 1008.55 1009.69 1010.78 1011.80 1012.77 1013.70 1014.58 1015.43 1016.23 1017.00 1017.72 1018.38 1018.97
986.39 986.27 986.22 986.27 986.43 986.69 987.06 987.54 988.12 988.77 989.49 990.24 991.02 991.79 992.56 993.31 994.04 994.77 995.51 996.28 997.10 997.98 998.93 999.96 1001.05 1002.21 1003.41 1004.63 1005.86 1007.06 1008.22 1009.33 1010.39 1011.39 1012.34 1013.24 1014.11 1014.94 1015.75 1016.53 1017.27 1017.96 1018.60 1019.17
985.17 985.03 985.00 985.10 985.32 985.67 986.15 986.73 987.42 988.19 989.02 989.89 990.78 991.67 992.56 993.43 994.30 995.16 996.03 996.93 997.86 998.85 999.88 1000.98 1002.11 1003.29 1004.48 1005.67 1006.84 1007.98 1009.06 1010.10 1011.07 1012.00 1012.88 1013.72 1014.53 1015.32 1016.09 1016.83 1017.54 1018.21 1018.81 1019.34
984.15 984.03 984.05 984.23 984.55 985.02 985.62 986.33 987.14 988.03 988.97 989.95 990.94 991.93 992.91 993.88 994.83 995.79 996.75 997.74 998.75 999.80 1000.90 1002.02 1003.18 1004.35 1005.51 1006.67 1007.78 1008.86 1009.87 1010.84 1011.74 1012.60 1013.42 1014.21 1014.97 1015.72 1016.45 1017.15 1017.81 1018.43 1018.99 1019.46
983.42 983.35 983.46 983.74 984.19 984.79 985.52 986.37 987.31 988.32 989.36 990.43 991.50 992.56 993.60 994.63 995.64 996.65 997.66 998.69 999.74 1000.82 1001.93 1003.06 1004.21 1005.36 1006.49 1007.60 1008.67 1009.68 1010.64 1011.55 1012.40 1013.21 1013.98 1014.72 1015.43 1016.13 1016.81 1017.46 1018.07 1018.63 1019.12 1019.52
Thickness
5486 5496 5503 5510 5518 5523 5531 5553 5572 5598 5609 5623 5633 5639 5645 5647 5649 5651 5653 5654 5656 5659 5660 5659 5658 5657 5657 5656 5653 5651 5648 5644 5640 5636 5631 5626 5620 5615 5609 5604 5598 5592 5586 5579
5477 5492 5499 5508 5522 5528 5536 5552 5570 5586 5601 5619 5623 5628 5632 5637 5640 5643 5648 5649 5650 5652 5653 5653 5653 5652 5650 5648 5646 5644 5641 5637 5632 5627 5622 5617 5612 5606 5601 5595 5589 5583 5577 5571
5470 5485 5489 5504 5530 5538 5547 5561 5572 5581 5600 5605 5609 5616 5625 5630 5634 5638 5642 5644 5645 5647 5648 5650 5650 5648 5645 5643 5639 5636 5633 5629 5624 5620 5614 5609 5603 5598 5593 5587 5581 5576 5570 5564
5456 5470 5479 5525 5539 5542 5548 5558 5568 5578 5585 5593 5602 5614 5621 5626 5630 5633 5637 5639 5641 5643 5644 5645 5644 5642 5639 5636 5633 5629 5626 5621 5617 5612 5607 5601 5596 5591 5585 5580 5574 5568 5561 5555
5449 5466 5492 5520 5529 5535 5540 5549 5557 5566 5573 5582 5592 5602 5612 5619 5624 5630 5634 5637 5641 5642 5642 5640 5638 5636 5632 5629 5626 5622 5619 5615 5610 5606 5600 5594 5589 5583 5577 5572 5565 5558 5552 5546
5444 5459 5487 5522 5530 5534 5535 5541 5552 5558 5565 5571 5578 5587 5608 5613 5617 5624 5629 5632 5633 5635 5635 5634 5633 5630 5627 5625 5621 5618 5614 5609 5604 5599 5594 5588 5582 5575 5569 5563 5556 5548 5541 5536
5440 5457 5489 5513 5518 5525 5525 5540 5548 5553 5560 5564 5572 5588 5602 5607 5612 5617 5622 5626 5627 5627 5629 5630 5629 5626 5624 5621 5618 5614 5607 5601 5596 5591 5586 5581 5574 5567 5560 5553 5545 5538 5531 5525
5442 5450 5479 5503 5506 5514 5522 5532 5539 5548 5555 5562 5573 5584 5591 5597 5603 5609 5615 5618 5620 5621 5623 5623 5623 5623 5621 5617 5613 5605 5599 5593 5588 5583 5576 5571 5565 5557 5551 5544 5537 5529 5522 5514
5453 5471 5490 5493 5498 5506 5513 5521 5531 5540 5550 5558 5567 5576 5584 5591 5598 5603 5608 5613 5615 5617 5616 5616 5617 5618 5617 5611 5604 5598 5592 5586 5580 5573 5567 5562 5556 5549 5542 5536 5529 5521 5514 5506
5445 5465 5478 5484 5490 5497 5504 5512 5522 5530 5541 5551 5560 5569 5578 5585 5591 5597 5602 5606 5609 5610 5609 5610 5611 5611 5610 5603 5597 5592 5586 5578 5571 5564 5557 5551 5545 5540 5534 5528 5521 5513 5505 5498
5439 5457 5466 5478 5484 5491 5498 5506 5514 5523 5533 5544 5554 5563 5571 5578 5586 5592 5596 5600 5603 5605 5607 5606 5604 5603 5599 5595 5591 5585 5577 5569 5562 5555 5549 5541 5534 5529 5524 5519 5514 5507 5499 5492
5439 5454 5456 5469 5479 5484 5490 5499 5508 5517 5527 5538 5547 5557 5565 5573 5580 5585 5590 5593 5596 5599 5600 5598 5596 5593 5590 5588 5585 5579 5570 5561 5554 5547 5540 5533 5525 5515 5507 5504 5498 5493 5488 5482
5437 5444 5449 5461 5471 5478 5485 5494 5503 5511 5521 5532 5543 5553 5560 5568 5573 5578 5583 5587 5591 5593 5592 5591 5588 5584 5582 5580 5577 5572 5565 5556 5547 5540 5533 5526 5518 5511 5500 5490 5485 5480 5475 5469
5432 5436 5444 5455 5464 5473 5482 5490 5498 5506 5516 5527 5537 5546 5553 5559 5565 5570 5576 5580 5583 5584 5583 5582 5580 5576 5573 5571 5567 5562 5555 5546 5540 5533 5526 5518 5511 5504 5496 5488 5478 5469 5462 5457
5430 5435 5444 5454 5461 5469 5477 5485 5493 5503 5512 5522 5531 5539 5546 5552 5558 5563 5567 5570 5572 5573 5573 5573 5571 5567 5563 5561 5557 5551 5545 5538 5531 5524 5516 5509 5501 5494 5487 5479 5471 5462 5454 5446
5431 5435 5442 5449 5458 5468 5475 5483 5492 5502 5510 5518 5526 5533 5539 5546 5551 5553 5556 5561 5564 5566 5566 5565 5562 5558 5554 5550 5546 5541 5534 5527 5522 5515 5506 5498 5491 5484 5477 5470 5462 5455 5447 5439
5428 5436 5442 5450 5459 5468 5476 5484 5493 5502 5509 5516 5522 5527 5532 5536 5539 5543 5546 5551 5555 5557 5557 5556 5552 5547 5544 5541 5538 5532 5524 5515 5510 5504 5497 5490 5483 5475 5468 5461 5453 5446 5438 5430
5432 5439 5445 5453 5461 5469 5477 5485 5492 5499 5506 5512 5515 5520 5525 5531 5535 5537 5539 5540 5542 5543 5543 5543 5541 5538 5535 5532 5529 5523 5516 5508 5502 5495 5487 5480 5473 5466 5458 5451 5444 5437 5429 5421
5432 5438 5446 5453 5460 5468 5477 5485 5492 5498 5502 5506 5511 5517 5522 5527 5529 5530 5531 5532 5534 5534 5532 5532 5530 5529 5525 5522 5519 5513 5507 5499 5492 5484 5478 5470 5463 5455 5448 5442 5435 5428 5420 5413
5431 5437 5444 5451 5458 5466 5476 5484 5490 5496 5501 5504 5508 5512 5515 5518 5520 5522 5523 5525 5529 5531 5527 5524 5521 5518 5514 5510 5508 5503 5497 5491 5484 5476 5468 5461 5453 5446 5439 5432 5426 5419 5411 5405
5427 5434 5441 5449 5456 5465 5475 5482 5488 5495 5499 5501 5505 5509 5510 5511 5513 5515 5517 5517 5515 5516 5516 5515 5513 5509 5505 5502 5498 5494 5488 5482 5474 5467 5459 5452 5444 5437 5430 5423 5416 5409 5403 5396
5422 5430 5438 5446 5454 5462 5471 5479 5487 5492 5495 5497 5499 5502 5503 5504 5505 5508 5509 5512 5508 5507 5509 5506 5504 5501 5497 5493 5489 5484 5478 5471 5465 5458 5450 5443 5436 5429 5422 5415 5408 5401 5394 5387
5418 5426 5434 5443 5451 5459 5466 5475 5482 5487 5491 5493 5496 5498 5500 5502 5503 5505 5502 5500 5501 5500 5501 5499 5496 5492 5488 5484 5479 5474 5467 5461 5455 5448 5441 5434 5427 5420 5413 5406 5399 5392 5385 5378
5414 5423 5431 5440 5447 5454 5462 5469 5474 5479 5483 5486 5489 5492 5494 5495 5495 5496 5497 5494 5494 5493 5491 5488 5485 5482 5478 5474 5468 5462 5456 5450 5444 5437 5430 5424 5417 5410 5403 5396 5390 5383 5376 5369
5409 5420 5429 5437 5445 5453 5458 5461 5464 5468 5474 5477 5479 5482 5486 5490 5491 5488 5486 5485 5484 5482 5479 5476 5474 5470 5467 5462 5457 5451 5445 5439 5433 5427 5420 5413 5407 5400 5393 5387 5380 5373 5367 5360
5406 5417 5427 5435 5443 5448 5453 5457 5462 5465 5468 5470 5471 5473 5475 5477 5478 5477 5476 5474 5473 5472 5469 5464 5460 5457 5453 5450 5445 5439 5434 5427 5421 5415 5409 5403 5396 5390 5383 5377 5370 5364 5358 5351
5403 5413 5421 5429 5436 5442 5447 5453 5457 5460 5463 5465 5464 5464 5466 5467 5467 5467 5466 5464 5461 5458 5456 5452 5448 5445 5441 5437 5433 5427 5421 5415 5409 5403 5397 5392 5385 5379 5373 5367 5361 5355 5348 5342